Regional Weather Roundup
Issued by NWS

Home | Current Version | Previous Version | Graphics & Text | Print | Product List | Glossary On
Versions: 1 2 3 4 5 6 7 8 9 10 11 12 13 14 15 16 17 18 19 20 21 22 23 24 25 26 27 28 29 30 31 32 33 34 35 36 37 38 39 40 41 42 43 44 45 46 47 48 49 50
000
ASUS43 KLMK 300902
RWRKY
KENTUCKY REGIONAL WEATHER ROUNDUP
NATIONAL WEATHER SERVICE LOUISVILLE KY
500 AM EDT SAT JUL 30 2016

NOTE "FAIR" INDICATES FEW OR NO CLOUDS BELOW 12,000 FEET
WITH NO SIGNIFICANT WEATHER AND/OR OBSTRUCTIONS TO VISIBILITY.

KYZ001>023-026-027-061>063-070>075-301000-
WESTERN AND SOUTH CENTRAL KENTUCKY

CITY           SKY/WX    TMP DP  RH WIND       PRES   REMARKS
PADUCAH        CLEAR     70  68  93 CALM      29.94S
HENDERSON      CLEAR     72  68  88 SW5       29.92S
OWENSBORO      CLOUDY    72  72 100 CALM      29.93S
HOPKINSVILLE   PTCLDY    71  71  98 SW6       29.95S
BOWLING GREEN  PTCLDY    73  70  90 SW3       29.95R
GLASGOW        NOT AVBL
$$

KYZ024-025-028>034-038-045-046-053-301000-
NORTH CENTRAL KENTUCKY

CITY           SKY/WX    TMP DP  RH WIND       PRES   REMARKS
LOUISVILLE/SDF MOCLDY    73  70  90 SW7       29.92R
LOUISVILLE/LOU MOCLDY    73  70  90 SW3       29.92S
FORT KNOX      FOG       70  70 100 W5        29.92S VSB 3/4
$$

KYZ035>037-039>044-047>052-055>060-089>105-301000-
NORTHEAST KENTUCKY

CITY           SKY/WX    TMP DP  RH WIND       PRES   REMARKS
LEXINGTON      CLOUDY    71  68  90 CALM      29.95S
COVINGTON      CLOUDY    71  70  96 W3        29.91S FOG
FRANKFORT      CLOUDY    71  68  90 S3        29.92S
$$

KYZ054-064>069-076>088-106>120-301000-
SOUTHEAST KENTUCKY

CITY           SKY/WX    TMP DP  RH WIND       PRES   REMARKS
JACKSON        PTCLDY    69  67  93 CALM      29.97R
LONDON         CLOUDY    70  67  90 CALM      29.98R
SOMERSET       CLOUDY    70  70 100 CALM      29.98R
MIDDLESBORO    CLOUDY    70  69  99 CALM      30.00R
MONTICELLO     CLOUDY   N/A N/A N/A NE8       29.99R
$$




USA.gov is the U.S. government's official web portal to all federal, state and local government web resources and services.